Zurück zum Katalog

SL-16 DEB

AktivLEO
NORAD 39726·DEBRIS·🇷🇺 Russia

Gestartet Dec 25, 1992 von Baikonur Cosmodrome

Loading…

Nächste Überflüge (nächste 24 Stunden)

TLE

AlterndSource: Space-Track

Epoche: Sep 12, 2026, 06:19 UTC

1 39726U 92093KS  26255.26331196  .00000094  00000-0  10290-3 0  9999
2 39726  71.1561 104.5177 0122749 223.2021 258.6983 13.91369865629641

Verfolge SL-16 DEB in Echtzeit mit AllMySat

Download on the App Store